Regional Weather Roundup
Issued by NWS

Home | Current Version | Previous Version | Text Only | Print | Product List | Glossary On
Versions: 1 2 3 4 5 6 7 8 9 10 11 12 13 14 15 16 17 18 19 20 21 22 23 24 25 26 27 28 29 30 31 32 33 34 35 36 37 38 39 40 41 42 43 44 45 46 47 48 49
000
ASUS45 KBOI 080210
RWRID

IDAHO REGIONAL WEATHER ROUNDUP
NATIONAL WEATHER SERVICE BOISE ID
700 PM MST SUN FEB 07 2016

NOTE: "FAIR" INDICATES FEW OR NO CLOUDS BELOW 12000 FEET
WITH NO SIGNIFICANT WEATHER AND/OR OBSTRUCTIONS TO VISIBILITY

IDZ012-014-080300-
SOUTHWEST IDAHO


CITY           SKY/WX    TMP DP  RH WIND       PRES   REMARKS
BOISE          CLEAR     42  34  73 CALM      30.62S
CALDWELL       CLEAR     40  34  79 W5        30.64S
MOUNTAIN HOME  CLEAR     40  40 100 NW3       30.62R
$$

IDZ016-017-080300-
SOUTHCENTRAL IDAHO


CITY           SKY/WX    TMP DP  RH WIND       PRES   REMARKS
BURLEY         CLEAR     30  27  88 CALM      30.61R
JEROME         PTCLDY    26  23  88 NE12      30.62R WCI  16
TWIN FALLS     PTCLDY    32  30  92 S3        30.62R
$$

IDZ019>023-080300-
SOUTHEAST IDAHO


CITY           SKY/WX    TMP DP  RH WIND       PRES   REMARKS
IDAHO FALLS    FOG       23  21  92 N7        30.64R VSB 1   WCI  15
POCATELLO      FOG       25  24  96 N5        30.64R VSB 1/4 WCI  19
REXBURG        CLOUDY    25  23  92 CALM      30.63R
$$

IDZ006-010-011-018-031-032-080300-
CENTRAL IDAHO MOUNTAINS


CITY           SKY/WX    TMP DP  RH WIND       PRES   REMARKS
MCCALL         FOG       26  25  96 CALM      30.59S VSB 3/4
HAILEY         PTCLDY    25  19  80 CALM      30.60R
STANLEY          N/A     23  15  71 SE3       30.60R
SALMON         CLOUDY    19  12  73 SE6       30.63S WCI  11
CHALLIS        CLEAR     18  13  80 CALM      30.61R
$$

IDZ002-004-006-007-026-080300-
NORTHERN IDAHO


CITY           SKY/WX    TMP DP  RH WIND       PRES   REMARKS
LEWISTON       CLEAR     43  31  62 CALM      30.62R
LOWELL           N/A     37  34  89 N3        30.67R
COEUR D`ALENE  CLOUDY    39  30  70 NE6       30.59S WCI  35
MULLAN PASS    CLOUDY    27  17  66 SW5       30.53S WCI  22
$$



USA.gov is the U.S. government's official web portal to all federal, state and local government web resources and services.